Manistique, MI

11:35 AM EDT on September 28, 2016 (GMT -0400)
Schoolcraft County

Weather History for KISQ - July, 2014

Change the Weather History Date:

Sunday, July 13, 2014

  Actual Average Record
Temperature  
Mean Temperature 60 °F -  
Max Temperature 72 °F 73 °F 89 °F (2005)
Min Temperature 48 °F 54 °F 46 °F (1962)
Degree Days  
Heating Degree Days 5    
Growing Degree Days 10 (Base 50)    
Moisture  
Dew Point 54 °F    
Average Humidity 78    
Maximum Humidity 100    
Minimum Humidity 44    
Precipitation  
Precipitation 0.00 in - - ()
Sea Level Pressure  
Sea Level Pressure 29.80 in    
Wind  
Wind Speed 4 mph (West)    
Max Wind Speed 15 mph    
Max Gust Speed 23 mph    
Visibility 7 miles    
Events Fog , Rain    
Averages and records for this station are not official NWS values.
T = Trace of Precipitation, MM = Missing Value Source: NWS Daily Summary

Daily Weather History Graph

Daily Weather History Graph

Search for Another Location

Airport or City:

Trip Planner

Search our weather history database for the weather conditions in past years. The results will help you decide how hot, cold, wet, or windy it might be!

Date:

Astronomy

Jul. 13, 2014 Rise Set
Actual Time 6:06 AM EDT 9:33 PM EDT
Civil Twilight 5:29 AM EDT 10:10 PM EDT
Nautical Twilight 4:40 AM EDT 10:59 PM EDT
Astronomical Twilight 3:37 AM EDT 12:02 AM EDT
Moon 10:11 PM EDT (7/13) 7:44 AM EDT (7/13)
Length of Visible Light 16h 40m
Length of Day
15h 26m
Full, 98% of the Moon is Illuminated
Jul 13
Full
Jul 18
Last Quarter
Jul 26
New
Aug 3
First Quarter
Aug 10
Full

Hourly Weather History & Observations

Time (EDT) Temp. Dew Point Humidity Pressure Visibility Wind Dir Wind Speed Gust Speed Precip Events Conditions
12:14 AM 58.1 °F 57.2 °F 97% 29.79 in 3.0 mi South 5.8 mph - N/A Rain Light Rain
12:35 AM 57.2 °F 56.7 °F 98% 29.78 in 3.0 mi Calm Calm - N/A   Scattered Clouds
12:54 AM 57.4 °F 56.8 °F 98% 29.77 in 4.0 mi Calm Calm - N/A   Scattered Clouds
1:14 AM 57.4 °F 56.8 °F 98% 29.78 in 5.0 mi SSE 4.6 mph - N/A   Scattered Clouds
1:35 AM 57.4 °F 56.7 °F 97% 29.77 in 5.0 mi Calm Calm - N/A   Scattered Clouds
1:54 AM 56.5 °F 55.9 °F 98% 29.76 in 5.0 mi SE 3.5 mph - N/A   Clear
2:15 AM 55.2 °F 54.9 °F 99% 29.77 in 3.0 mi Calm Calm - N/A   Clear
2:35 AM 54.7 °F 54.3 °F 99% 29.76 in 1.5 mi Calm Calm - N/A   Mist
2:54 AM 52.7 °F 52.3 °F 99% 29.76 in 0.5 mi Calm Calm - N/A Fog Fog
3:15 AM 53.1 °F 52.9 °F 99% 29.75 in 1.5 mi Calm Calm - N/A   Mostly Cloudy
3:34 AM 52.7 °F 52.5 °F 99% 29.75 in 0.2 mi Calm Calm - N/A Fog Fog
3:54 AM 52.9 °F 52.7 °F 99% 29.74 in 0.2 mi Calm Calm - N/A Fog Fog
4:15 AM 51.4 °F 51.1 °F 99% 29.74 in 0.2 mi Calm Calm - N/A Fog Fog
4:34 AM 50.4 °F 50.2 °F 99% 29.73 in 0.2 mi Calm Calm - N/A Fog Fog
4:55 AM 49.5 °F 49.1 °F 99% 29.74 in 0.2 mi Calm Calm - N/A Fog Fog
5:15 AM 49.3 °F 49.1 °F 99% 29.74 in 0.5 mi SSW 3.5 mph - N/A Fog Fog
5:34 AM 49.5 °F 49.1 °F 99% 29.74 in 0.8 mi Calm Calm - N/A   Mostly Cloudy
5:55 AM 49.6 °F 49.6 °F 100% 29.73 in 0.2 mi Calm Calm - N/A Fog Fog
6:14 AM 48.2 °F 48.2 °F 100% 29.74 in 0.2 mi Calm Calm - N/A Fog Fog
6:34 AM 52.3 °F 52.3 °F 100% 29.74 in 0.2 mi Calm Calm - N/A Fog Fog
6:55 AM 59.0 °F 59.0 °F 100% 29.74 in 2.0 mi Calm Calm - N/A   Clear
7:14 AM 60.1 °F 60.1 °F 100% 29.74 in 4.0 mi Calm Calm - N/A   Mostly Cloudy
7:35 AM 61.0 °F 60.8 °F 99% 29.76 in 5.0 mi SW 3.5 mph - N/A   Scattered Clouds
7:55 AM 62.1 °F 61.5 °F 98% 29.76 in 10.0 mi WSW 3.5 mph - N/A   Scattered Clouds
8:14 AM 64.0 °F 62.6 °F 95% 29.76 in 10.0 mi WNW 6.9 mph - N/A   Scattered Clouds
8:35 AM 64.4 °F 61.0 °F 89% 29.77 in 10.0 mi NW 15.0 mph 21.9 mph N/A   Mostly Cloudy
8:54 AM 63.9 °F 58.8 °F 84% 29.77 in 10.0 mi NW 13.8 mph 20.7 mph N/A   Mostly Cloudy
9:14 AM 64.6 °F 57.7 °F 78% 29.78 in 10.0 mi NW 11.5 mph - N/A   Scattered Clouds
9:35 AM 64.6 °F 57.0 °F 76% 29.78 in 10.0 mi NW 9.2 mph 20.7 mph N/A   Scattered Clouds
9:54 AM 67.1 °F 57.4 °F 71% 29.79 in 10.0 mi WNW 13.8 mph 19.6 mph N/A   Mostly Cloudy
10:14 AM 68.0 °F 57.4 °F 69% 29.78 in 10.0 mi NW 11.5 mph 18.4 mph N/A   Scattered Clouds
10:34 AM 68.0 °F 57.7 °F 70% 29.79 in 10.0 mi NW 11.5 mph 16.1 mph N/A   Mostly Cloudy
10:54 AM 66.9 °F 55.6 °F 67% 29.79 in 10.0 mi NW 11.5 mph 18.4 mph N/A   Overcast
11:14 AM 65.5 °F 54.3 °F 67% 29.79 in 10.0 mi NNW 10.4 mph 18.4 mph N/A   Overcast
11:34 AM 67.8 °F 54.5 °F 62% 29.80 in 10.0 mi NW 10.4 mph - N/A   Mostly Cloudy
11:55 AM 68.2 °F 55.0 °F 63% 29.80 in 10.0 mi NNW 8.1 mph 18.4 mph N/A   Mostly Cloudy
12:14 PM 66.6 °F 54.1 °F 64% 29.81 in 10.0 mi North 12.7 mph 17.3 mph N/A   Mostly Cloudy
12:34 PM 68.4 °F 54.7 °F 62% 29.81 in 10.0 mi North 12.7 mph 17.3 mph N/A   Mostly Cloudy
12:55 PM 68.9 °F 54.0 °F 59% 29.81 in 10.0 mi NW 12.7 mph 19.6 mph N/A   Scattered Clouds
1:14 PM 69.4 °F 53.4 °F 57% 29.81 in 10.0 mi NNW 13.8 mph 23.0 mph N/A   Scattered Clouds
1:35 PM 69.1 °F 50.9 °F 52% 29.82 in 10.0 mi NW 12.7 mph 19.6 mph N/A   Scattered Clouds
1:54 PM 72.1 °F 51.6 °F 48% 29.81 in 10.0 mi NW 12.7 mph 20.7 mph N/A   Scattered Clouds
2:14 PM 72.5 °F 49.3 °F 44% 29.81 in 10.0 mi WNW 15.0 mph 21.9 mph N/A   Scattered Clouds
2:34 PM 72.7 °F 50.4 °F 45% 29.81 in 10.0 mi West 10.4 mph 16.1 mph N/A   Scattered Clouds
2:54 PM 71.4 °F 50.2 °F 47% 29.82 in 10.0 mi WNW 8.1 mph - N/A   Scattered Clouds
3:15 PM 72.1 °F 49.1 °F 44% 29.81 in 10.0 mi NW 10.4 mph - N/A   Clear
3:34 PM 72.5 °F 49.3 °F 44% 29.82 in 10.0 mi NW 8.1 mph - N/A   Scattered Clouds
3:54 PM 71.2 °F 49.6 °F 46% 29.82 in 10.0 mi West 4.6 mph - N/A   Scattered Clouds
4:14 PM 71.4 °F 48.9 °F 45% 29.82 in 10.0 mi NNW 4.6 mph - N/A   Mostly Cloudy
4:34 PM 71.4 °F 49.1 °F 45% 29.82 in 10.0 mi North 3.5 mph - N/A   Overcast
4:54 PM 69.8 °F 54.1 °F 57% 29.83 in 10.0 mi South 8.1 mph - N/A   Scattered Clouds
5:14 PM 68.0 °F 53.4 °F 60% 29.83 in 10.0 mi South 5.8 mph - N/A   Clear
5:35 PM 67.1 °F 54.3 °F 63% 29.83 in 10.0 mi South 5.8 mph - N/A   Clear
5:54 PM 65.8 °F 53.6 °F 65% 29.83 in 10.0 mi South 5.8 mph - N/A   Scattered Clouds
6:15 PM 66.6 °F 53.4 °F 63% 29.83 in 10.0 mi South 6.9 mph - N/A   Mostly Cloudy
6:35 PM 65.3 °F 51.3 °F 60% 29.83 in 10.0 mi South 5.8 mph - N/A   Mostly Cloudy
7:15 PM 66.9 °F 50.7 °F 56% 29.83 in 10.0 mi SSW 4.6 mph - N/A   Scattered Clouds
7:34 PM 63.7 °F 51.1 °F 64% 29.83 in 10.0 mi South 3.5 mph - N/A   Scattered Clouds
7:54 PM 65.3 °F 51.8 °F 62% 29.83 in 10.0 mi SSE 4.6 mph - N/A   Mostly Cloudy
8:15 PM 64.6 °F 51.6 °F 63% 29.84 in 10.0 mi Calm Calm - N/A   Scattered Clouds
8:34 PM 61.9 °F 51.8 °F 69% 29.84 in 10.0 mi South 3.5 mph - N/A   Clear
8:54 PM 60.8 °F 53.6 °F 77% 29.84 in 10.0 mi Calm Calm - N/A   Scattered Clouds
9:15 PM 58.5 °F 53.1 °F 82% 29.84 in 10.0 mi South 3.5 mph - N/A   Scattered Clouds
9:34 PM 57.9 °F 52.5 °F 82% 29.84 in 10.0 mi Calm Calm - N/A   Clear
9:55 PM 56.1 °F 51.1 °F 83% 29.84 in 10.0 mi Calm Calm - N/A   Scattered Clouds
10:14 PM 54.5 °F 51.8 °F 91% 29.84 in 10.0 mi Calm Calm - N/A   Mostly Cloudy
10:34 PM 55.4 °F 52.2 °F 89% 29.85 in 10.0 mi Calm Calm - N/A   Light Drizzle
10:55 PM 54.5 °F 52.0 °F 91% 29.84 in 10.0 mi North 4.6 mph - N/A   Overcast
11:14 PM 54.0 °F 52.0 °F 93% 29.85 in 10.0 mi Calm Calm - N/A   Mostly Cloudy
11:34 PM 54.0 °F 52.0 °F 93% 29.85 in 10.0 mi Calm Calm - N/A   Mostly Cloudy
11:55 PM 54.1 °F 52.2 °F 93% 29.84 in 10.0 mi Calm Calm - N/A   Overcast